Location: Frankfurt+am+Main
(50.1100°N, 8.4815°E)
Time: 19:01:22
(UTC+01:00)

Envisat - Visible Passes

Search period start: 17 January 2018 00:00
Search period end: 27 January 2018 00:00
Orbit: 764 x 766 km, 98.2° (Epoch: 16 January)

Date Brightness Start Highest point End Pass type
(mag) Time Alt. Az. Time Alt. Az. Time Alt. Az.
17 Jan 4.3 18:19:48 18° ENE 18:20:09 18° ENE 18:23:34 10° NNE visible
17 Jan 3.6 19:59:59 49° NNW 19:59:59 49° NNW 20:03:42 10° NNW visible
17 Jan 6.0 21:40:10 11° WNW 21:40:10 11° WNW 21:40:38 10° WNW visible
18 Jan 4.9 17:43:34 10° NE 17:44:00 10° NE 17:44:27 10° NE visible
18 Jan 3.2 19:22:36 48° NE 19:22:36 48° NE 19:26:51 10° N visible
18 Jan 5.2 21:02:48 22° WNW 21:02:48 22° WNW 21:05:27 10° NW visible
19 Jan 6.1 07:23:06 10° ENE 07:25:11 12° E 07:27:15 10° ESE visible
19 Jan 3.8 18:45:13 27° ENE 18:45:27 28° ENE 18:49:43 10° N visible
19 Jan 4.0 20:25:24 42° WNW 20:25:24 42° WNW 20:29:12 10° NNW visible
20 Jan 4.5 18:07:50 14° ENE 18:09:10 16° NE 18:12:06 10° NNE visible
20 Jan 3.0 19:48:01 70° N 19:48:01 70° N 19:52:34 10° NNW visible
20 Jan 5.7 21:28:12 15° WNW 21:28:12 15° WNW 21:30:11 10° NW visible
21 Jan 3.3 19:10:36 42° ENE 19:10:51 42° ENE 19:15:38 10° N visible
21 Jan 4.7 20:50:48 29° WNW 20:50:48 29° WNW 20:54:31 10° NNW visible
22 Jan 4.1 18:33:12 21° E 18:34:26 23° ENE 18:38:23 10° N visible
22 Jan 3.4 20:13:23 60° W 20:13:23 60° W 20:18:07 10° NNW visible
23 Jan 4.7 17:55:56 10° ENE 17:58:13 13° NE 18:00:29 10° NNE visible
23 Jan 2.8 19:35:58 65° E 19:36:20 68° ENE 19:41:24 10° N visible
23 Jan 5.4 21:16:10 19° W 21:16:10 19° W 21:19:29 10° NW visible
24 Jan 3.5 18:58:32 31° E 18:59:47 35° ENE 19:04:23 10° N visible
24 Jan 4.2 20:38:43 38° W 20:38:47 38° W 20:43:32 10° NNW visible
25 Jan 4.3 18:21:06 15° E 18:23:26 20° ENE 18:27:01 10° NNE visible
25 Jan 3.0 20:01:17 66° SSW 20:01:55 76° WSW 20:07:02 10° NNW visible
25 Jan 5.9 21:41:28 11° W 21:41:50 12° W 21:43:33 10° WNW visible
26 Jan 4.8 17:45:59 10° ENE 17:47:16 11° NE 17:48:33 10° NE visible
26 Jan 3.0 19:23:51 42° ESE 19:25:14 56° ENE 19:30:13 10° N visible
26 Jan 5.0 21:04:02 23° WSW 21:04:36 24° W 21:08:40 10° NW visible
